Naha City, Japan

1:16 AM JST on September 27, 2016 (GMT +0900)
Naha

Weather History for ROAH - May, 2013

Change the Weather History Date:

Sunday, May 5, 2013

  Actual Average Record
Temperature  
Mean Temperature 73 °F -  
Max Temperature 77 °F 78 °F 84 °F (1998)
Min Temperature 69 °F 70 °F 66 °F (2000)
Cooling Degree Days 8    
Growing Degree Days 23 (Base 50)    
Moisture  
Dew Point 58 °F    
Average Humidity 62    
Maximum Humidity 69    
Minimum Humidity 53    
Precipitation  
Precipitation 0.00 in - - ()
Sea Level Pressure  
Sea Level Pressure 30.05 in    
Wind  
Wind Speed 8 mph ()    
Max Wind Speed 13 mph    
Max Gust Speed -    
Visibility 6.2 miles    
Events      
Averages and records for this station are not official NWS values.
T = Trace of Precipitation, MM = Missing Value Source: Averaged Metar Reports

Daily Weather History Graph

Daily Weather History Graph

Search for Another Location

Airport or City:

Trip Planner

Search our weather history database for the weather conditions in past years. The results will help you decide how hot, cold, wet, or windy it might be!

Date:

Astronomy

May. 05, 2013 Rise Set
Actual Time 5:49 AM JST 7:03 PM JST
Civil Twilight 5:24 AM JST 7:27 PM JST
Nautical Twilight 4:55 AM JST 7:56 PM JST
Astronomical Twilight 4:25 AM JST 8:27 PM JST
Moon 2:32 AM JST (5/5) 2:50 PM JST (5/5)
Length of Visible Light 14h 02m
Length of Day
13h 13m
Waning Crescent, 23% of the Moon is Illuminated
May 5
Waning Crescent
May 10
New
May 18
First Quarter
May 25
Full
Jun 1
Last Quarter

Hourly Weather History & Observations

Time (JST) Temp. Dew Point Humidity Pressure Visibility Wind Dir Wind Speed Gust Speed Precip Events Conditions
12:00 AM 69.8 °F 57.2 °F 64% 30.06 in 6.2 mi NE 8.1 mph - N/A   Mostly Cloudy
12:30 AM 69.8 °F 57.2 °F 64% 30.06 in 6.2 mi NE 6.9 mph - N/A   Mostly Cloudy
1:00 AM 69.8 °F 57.2 °F 64% 30.06 in 6.2 mi NE 6.9 mph - N/A   Mostly Cloudy
1:30 AM 69.8 °F 57.2 °F 64% 30.04 in 6.2 mi NE 8.1 mph - N/A   Mostly Cloudy
2:00 AM 69.8 °F 57.2 °F 64% 30.04 in 6.2 mi NE 5.8 mph - N/A   Mostly Cloudy
2:30 AM 69.8 °F 57.2 °F 64% 30.04 in 6.2 mi NE 5.8 mph - N/A   Scattered Clouds
3:00 AM 69.8 °F 59.0 °F 68% 30.04 in 6.2 mi NE 5.8 mph - N/A   Mostly Cloudy
3:30 AM 69.8 °F 59.0 °F 68% 30.04 in 6.2 mi NE 6.9 mph - N/A   Mostly Cloudy
4:00 AM 69.8 °F 59.0 °F 68% 30.04 in 6.2 mi NE 8.1 mph - N/A   Mostly Cloudy
4:30 AM 69.8 °F 59.0 °F 68% 30.06 in 6.2 mi NE 5.8 mph - N/A   Mostly Cloudy
5:00 AM 69.8 °F 59.0 °F 68% 30.06 in 6.2 mi NE 5.8 mph - N/A   Mostly Cloudy
5:30 AM 69.8 °F 59.0 °F 68% 30.06 in 6.2 mi ENE 6.9 mph - N/A   Mostly Cloudy
6:00 AM 69.8 °F 59.0 °F 68% 30.06 in 6.2 mi NE 8.1 mph - N/A   Mostly Cloudy
6:30 AM 69.8 °F 59.0 °F 68% 30.06 in 6.2 mi ENE 6.9 mph - N/A   Mostly Cloudy
7:00 AM 69.8 °F 59.0 °F 68% 30.06 in 6.2 mi ENE 8.1 mph - N/A   Mostly Cloudy
7:30 AM 71.6 °F 59.0 °F 64% 30.06 in 6.2 mi ENE 9.2 mph - N/A   Mostly Cloudy
8:00 AM 71.6 °F 59.0 °F 64% 30.09 in 6.2 mi ENE 10.4 mph - N/A   Mostly Cloudy
8:30 AM 71.6 °F 59.0 °F 64% 30.09 in 6.2 mi ENE 9.2 mph - N/A   Mostly Cloudy
9:00 AM 73.4 °F 59.0 °F 61% 30.09 in 6.2 mi ENE 10.4 mph - N/A   Mostly Cloudy
9:30 AM 73.4 °F 59.0 °F 61% 30.09 in 6.2 mi ENE 11.5 mph - N/A   Mostly Cloudy
10:00 AM 73.4 °F 59.0 °F 61% 30.09 in 6.2 mi ENE 12.7 mph - N/A   Mostly Cloudy
10:30 AM 75.2 °F 59.0 °F 57% 30.09 in 6.2 mi ENE 10.4 mph - N/A   Mostly Cloudy
11:00 AM 77.0 °F 60.8 °F 57% 30.09 in 6.2 mi ENE 11.5 mph - N/A   Scattered Clouds
11:30 AM 75.2 °F 59.0 °F 57% 30.09 in 6.2 mi ENE 11.5 mph - N/A   Mostly Cloudy
12:00 PM 75.2 °F 59.0 °F 57% 30.09 in 6.2 mi Variable 9.2 mph - N/A   Mostly Cloudy
12:30 PM 75.2 °F 59.0 °F 57% 30.06 in 6.2 mi ENE 12.7 mph - N/A   Mostly Cloudy
1:00 PM 75.2 °F 59.0 °F 57% 30.06 in 6.2 mi East 11.5 mph - N/A   Mostly Cloudy
1:30 PM 75.2 °F 57.2 °F 53% 30.06 in 6.2 mi East 10.4 mph - N/A   Mostly Cloudy
2:00 PM 75.2 °F 57.2 °F 53% 30.04 in 6.2 mi ENE 10.4 mph - N/A   Mostly Cloudy
2:30 PM 75.2 °F 59.0 °F 57% 30.04 in 6.2 mi East 10.4 mph - N/A   Mostly Cloudy
3:00 PM 75.2 °F 59.0 °F 57% 30.04 in 6.2 mi East 11.5 mph - N/A   Mostly Cloudy
3:30 PM 75.2 °F 59.0 °F 57% 30.01 in 6.2 mi ENE 11.5 mph - N/A   Mostly Cloudy
4:00 PM 75.2 °F 59.0 °F 57% 30.04 in 6.2 mi ENE 11.5 mph - N/A   Mostly Cloudy
4:30 PM 73.4 °F 59.0 °F 61% 30.01 in 6.2 mi East 10.4 mph - N/A   Mostly Cloudy
5:00 PM 75.2 °F 59.0 °F 57% 30.01 in 6.2 mi East 11.5 mph - N/A   Mostly Cloudy
5:30 PM 73.4 °F 59.0 °F 61% 30.01 in 6.2 mi East 11.5 mph - N/A   Scattered Clouds
6:00 PM 73.4 °F 55.4 °F 53% 30.01 in 6.2 mi East 10.4 mph - N/A   Scattered Clouds
6:30 PM 73.4 °F 55.4 °F 53% 30.01 in 6.2 mi ENE 11.5 mph - N/A   Scattered Clouds
7:00 PM 71.6 °F 57.2 °F 60% 30.04 in 6.2 mi ENE 10.4 mph - N/A   Scattered Clouds
7:30 PM 71.6 °F 57.2 °F 60% 30.04 in 6.2 mi ENE 11.5 mph - N/A   Scattered Clouds
8:00 PM 71.6 °F 57.2 °F 60% 30.04 in 6.2 mi East 8.1 mph - N/A   Scattered Clouds
8:30 PM 71.6 °F 57.2 °F 60% 30.06 in 6.2 mi ENE 6.9 mph - N/A   Partly Cloudy
9:00 PM 71.6 °F 59.0 °F 64% 30.06 in 6.2 mi ENE 8.1 mph - N/A   Scattered Clouds
9:30 PM 71.6 °F 59.0 °F 64% 30.06 in 6.2 mi ENE 6.9 mph - N/A   Scattered Clouds
10:00 PM 71.6 °F 59.0 °F 64% 30.06 in 6.2 mi East 4.6 mph - N/A   Partly Cloudy
10:30 PM 71.6 °F 59.0 °F 64% 30.06 in 6.2 mi East 5.8 mph - N/A   Partly Cloudy
11:00 PM 71.6 °F 59.0 °F 64% 30.06 in 6.2 mi ESE 4.6 mph - N/A   Partly Cloudy
11:30 PM 71.6 °F 60.8 °F 69% 30.06 in 6.2 mi East 4.6 mph - N/A   Partly Cloudy